Гродовка

Украина / Донецкая область     48°15′45″N   37°22′45″E
темп.,
°C
ветер,
м/с
пор.,
м/с
влажн.,
%
обл.,
%
осадки,
мм/ч
давл.,
гПа
погр.,
м
15 мая, сб
сб1500:00+14юз34800 0.0 101147
03:00+13з357645 0.0 101264
06:00+14ссз1173100 0.0 101311
09:00+20зюз22514 0.0 1013523
12:00+23юз35439 0.0 10141431
15:00+24юз464047 0.0 10132130
18:00+23зюз345065 0.0 1013285
21:00+17ссз226418 0.0 101311
16 мая, вс
вс1600:00+15ссв22700 0.0 101411
03:00+14св33731 0.0 101438
06:00+15св37775 0.0 1013116
09:00+21всв566053 0.0 1013476
12:00+26всв5650100 0.0 10111367
15:00+28св675058 0.0 10091876
18:00+24вюв6105348 0.3 1008405
21:00+18всв4106777 0.3 1007157
17 мая, пн
пн1700:00+17всв410685 0.0 1006181
03:00+16вюв4106048 0.0 1006182
06:00+15вюв5126536 0.0 1005271
09:00+21юв8125169 0.1 1005487
12:00+25ююв7105291 0.0 10061093
15:00+25ю785498 0.0 10061279
18:00+21ю5865100 0.0 1007332
21:00+18ююз61082100 0.0 1008424
18 мая, вт
вт1800:00+15ю3687100 0.0 1008192
03:00+15ююз6128976 0.0 1008509
06:00+14ю4791100 0.1 1009403
09:00+17ююз6880100 0.3 1009669
12:00+18ююз7107296 0.4 1010795
15:00+23ю784810 1.0 10082023
18:00+20ююз81063100 0.0 1008921
21:00+16ю6128098 0.0 1009390
19 мая, ср
ср1900:00+14ю61390100 0.0 1009426
03:00+14ююз61095100 1.6 1009452
06:00+14ююз7129193 0.4 1009686
09:00+15юз7108582 0.5 1010829
12:00+19юз6759100 0.3 10101586
15:00+19зсз5659100 0.7 1011839
18:00+19з35615 0.4 1011766
21:00+13сз12792 0.8 101310